RH
90 100 100 100 99 93 96 91 71 61 65 56 48 47 41 36 37 48 53 61 68 67 68 57 51 47 38 34 29 25 30 31 33 32 28 26 22 18 18 22 32 42 44 62
100 100 100 100 100 100 87 78 78 68 72 64 56 51 46 44 45 53 65 68 68 67 65 66 64 61 53 47 46 40 32 29 30 32 35 36 34 33 36 39 56 56 58 51
100 100 100 100 100 100 97 88 69 88 82 73 65 57 54 54 52 51 54 57 61 59 60 59 54 55 62 62 57 54 50 43 47 40 36 42 39 35 36 40 43 43 69 64
100 99 100 100 96 100 100 95 79 83 86 71 62 58 56 59 58 59 56 55 56 54 51 52 53 52 58 68 66 63 58 56 57 43 40 49 63 50 44 43 47 48 50 56
100 100 100 100 100 100 100 100 91 85 88 74 62 58 55 59 60 56 49 47 49 52 51 47 46 46 45 44 47 58 58 61 61 66 50 52 58 46 46 53 56 54 56 58
100 100 100 100 100 100 100 100 97 93 94 81 70 61 58 58 58 56 54 57 57 62 56 53 48 40 38 41 42 41 45 51 52 61 61 54 67 58 50 51 58 55 52 76
99 97 100 100 100 100 100 100 100 96 95 95 82 74 65 65 70 64 60 59 62 64 64 58 51 47 46 47 46 38 40 41 48 47 46 71 100 64 53 51 58 61 78 79
100 88 100 100 100 100 100 100 100 100 89 96 90 88 77 71 68 62 58 58 64 67 66 71 69 60 57 55 46 42 38 40 42 42 45 53 74 61 58 57 71 74 92 88
97 100 100 100 100 100 100 100 100 100 98 98 85 86 88 86 78 71 64 66 71 67 67 68 62 56 52 42 44 52 45 38 43 42 47 58 63 58 54 50 61 83 89 70
74 74 83 99 100 100 100 100 100 100 88 94 89 85 83 88 95 86 82 80 75 71 79 77 59 44 39 45 48 53 48 50 57 54 55 59 50 45 46 52 64 68 67 76
79 82 91 98 100 97 100 100 100 100 97 97 98 98 97 98 99 92 86 82 76 72 72 60 53 44 44 52 62 68 81 70 60 49 44 50 43 51 58 60 72 88 91 80
100 100 100 99 97 94 99 100 100 100 100 99 98 99 99 93 83 76 76 74 69 63 75 80 64 50 59 60 63 77 97 80 47 40 64 64 69 78 85 96 93 92 86 86
100 100 100 100 96 94 97 100 100 100 84 89 97 98 98 92 80 75 72 66 78 99 88 71 55 57 48 52 56 65 89 68 49 44 71 66 73 92 91 85 76 85 82 75
100 100 100 100 100 98 94 93 92 78 79 81 81 81 81 87 75 69 76 99 100 100 87 71 62 51 50 49 55 65 78 75 72 85 91 90 97 91 91 92 92 81 87 91
100 100 100 100 99 98 98 95 89 90 90 92 94 88 91 88 88 97 100 100 95 79 69 58 62 77 58 69 80 100 100 89 78 85 76 84 86 80 84 86 87 81 79 98
93 95 100 100 100 100 99 81 83 88 88 83 90 93 100 100 100 100 100 100 73 57 60 68 83 97 81 68 83 93 84 80 86 100 100 90 96 91 79 72 83 79 75 81
92 100 100 100 100 100 100 100 100 100 100 100 100 100 100 100 87 76 76 78 81 81 90 98 99 77 69 77 93 90 96 100 99 93 94 90 77 69 68 75 89 79 79 73
99 100 100 100 100 100 95 100 100 100 100 96 77 83 98 100 100 100 100 100 89 77 84 90 93 92 96 98 100 100 100 98 99 99 88 78 75 67 65 72 78 75 54 53
100 98 98 100 94 100 100 100 100 100 96 86 90 100 100 100 100 100 100 100 100 99 90 97 100 94 98 100 100 100 100 100 96 80 70 72 72 66 72 76 59 52 48 51
93 100 97 85 90 89 94 100 100 100 100 100 99 100 95 100 100 99 100 97 94 89 91 96 97 100 100 100 100 100 84 72 77 76 72 65 66 68 61 54 42 43 30 32
88 87 90 98 86 73 80 96 97 95 80 70 78 82 84 97 96 97 90 86 84 88 90 91 86 84 82 80 76 68 70 65 58 51 60 65 58 45 41 35 37 36 23 20
56 60 77 90 99 94 90 83 67 67 68 70 79 90 84 78 76 80 79 82 72 64 60 58 60 70 73 70 68 58 52 47 54 56 57 75 67 47 35 28 28 22 19 18
74 62 58 71 81 73 75 85 79 78 77 70 69 72 75 78 74 72 74 70 67 60 55 53 45 44 53 56 55 50 52 54 60 79 67 50 36 30 32 22 16 16 16 14
99 91 76 71 68 64 65 73 69 62 63 65 64 59 60 62 61 61 62 63 67 66 58 52 46 47 51 54 64 59 57 72 74 66 40 30 22 22 19 16 14 14 13 10
79 78 92 83 76 72 72 76 80 75 69 66 69 67 57 55 60 64 62 58 56 55 54 57 61 64 63 60 59 68 82 71 50 38 25 20 18 16 15 14 13 12 9 7
80 70 75 83 78 83 89 87 83 80 73 71 73 68 64 64 64 70 75 78 74 64 64 68 67 72 62 60 69 78 57 47 30 24 17 14 13 13 12 12 10 7 6 6
100 100 100 90 88 87 82 74 89 80 78 83 83 86 86 83 85 86 82 72 73 78 78 98 90 74 68 51 41 36 27 20 20 13 11 12 11 10 9 8 6 7 6 5
Wind_Speed
39 37 35 29 30 34 34 33 30 25 22 21 21 19 16 15 15 13 11 10 9 9 12 14 14 13 12 12 12 12 12 11 12 13 16 16 16 19 22 20 24 30 32 42
41 43 35 31 32 35 33 32 33 29 25 23 21 19 18 18 17 14 12 11 12 14 14 15 15 16 17 18 19 19 19 19 20 20 21 23 25 25 26 26 27 32 36 40
42 41 40 35 32 33 33 33 32 32 30 25 23 21 21 20 19 17 16 17 17 17 17 18 21 22 22 23 24 26 27 26 27 29 28 27 27 25 27 29 33 36 47 40
47 43 43 41 36 36 35 33 31 33 32 29 27 26 25 24 22 21 21 22 23 24 24 23 24 23 25 27 27 27 26 29 29 29 28 29 33 33 30 30 34 37 41 45
53 50 45 44 43 39 37 34 33 35 34 32 31 29 27 27 26 26 26 26 27 28 29 28 30 30 31 32 32 30 30 28 31 35 30 33 38 37 38 38 43 44 45 50
55 56 53 51 47 45 42 40 36 38 37 36 35 33 32 31 31 30 30 30 30 31 33 34 34 33 33 35 36 37 34 32 30 34 35 40 44 42 41 44 49 51 53 55
56 60 59 56 49 45 46 45 40 40 42 42 40 39 37 37 36 35 35 34 35 36 36 36 36 36 38 40 42 40 37 36 35 36 39 40 50 46 46 50 55 56 58 63
61 60 61 60 57 55 53 49 46 42 44 45 45 44 43 43 43 43 42 40 41 41 41 40 42 42 43 45 47 45 41 38 38 40 38 41 53 51 54 56 58 61 64 69
62 64 65 63 61 58 57 53 52 47 47 46 47 46 48 48 47 46 46 47 47 47 46 45 44 44 46 47 45 47 47 45 45 42 41 45 52 54 58 61 61 66 70 76
60 61 59 60 61 58 58 56 55 51 49 47 47 48 48 48 48 49 49 49 49 49 49 47 45 45 44 42 45 48 50 48 45 46 50 53 58 63 66 67 66 71 76 82
62 61 60 59 60 61 59 58 56 54 52 50 47 46 46 46 49 50 51 50 52 51 52 50 48 42 43 46 47 51 52 50 50 53 61 63 67 70 74 75 74 79 84 88
57 60 62 62 61 60 62 62 59 58 57 55 52 50 50 49 50 52 53 53 52 52 54 51 48 46 47 48 49 53 54 56 58 61 68 72 73 75 76 78 81 85 92 97
56 57 61 61 60 61 61 63 64 64 62 59 56 54 54 55 54 54 53 55 54 58 56 52 50 52 51 48 51 54 61 65 63 67 75 76 78 79 81 85 91 95 100 102
57 57 58 60 62 63 63 65 64 64 64 62 60 59 58 57 56 56 57 59 60 59 55 51 55 56 53 52 56 60 68 70 72 73 77 77 83 85 92 95 99 102 105 108
59 57 57 58 59 62 66 67 66 67 68 66 66 62 61 59 60 61 60 59 60 63 59 56 58 60 60 60 62 67 72 77 79 79 83 84 88 92 98 102 106 110 114 116
59 57 56 57 60 60 62 61 62 66 66 63 65 62 62 61 62 59 59 62 64 65 61 60 60 64 67 66 70 74 81 83 85 85 86 91 98 100 106 110 114 114 119 122
64 60 59 59 58 57 58 58 61 61 61 58 55 53 59 60 63 62 63 63 62 62 62 61 67 72 76 75 76 82 85 86 89 92 96 101 106 111 115 117 118 121 125 126
72 69 68 64 62 61 60 60 62 64 64 61 54 51 55 62 66 68 66 66 67 65 66 69 73 73 77 79 83 86 88 91 97 100 103 107 113 118 121 122 124 126 126 125
77 77 75 73 68 64 64 68 68 68 68 63 57 56 59 60 68 70 71 72 73 73 75 75 77 80 83 85 87 91 97 102 103 107 112 115 118 122 126 125 125 124 126 126
82 83 83 80 76 75 72 75 74 72 71 67 67 68 70 73 75 76 79 80 82 82 82 85 87 87 90 95 99 101 105 109 111 112 116 120 123 125 127 127 125 123 119 116
92 90 87 85 85 85 83 83 83 82 80 76 75 78 80 82 83 84 83 83 85 85 86 90 91 91 99 101 105 109 109 113 117 121 120 120 121 121 121 120 119 117 113 111
93 91 92 92 92 93 92 92 89 86 86 84 86 88 90 90 91 93 93 94 96 96 96 99 100 104 108 109 110 115 118 118 119 121 118 119 119 119 118 116 114 108 108 109
97 98 97 97 96 98 96 94 94 93 93 93 93 95 96 97 98 100 101 103 104 106 107 109 111 113 112 114 117 119 118 120 118 121 119 116 116 113 114 113 110 106 106 106
104 103 104 101 99 98 97 98 98 98 97 98 99 101 102 101 105 106 108 108 109 112 111 113 115 113 111 109 114 118 115 116 116 115 114 114 110 109 109 109 107 104 105 101
106 102 103 100 100 99 100 103 103 104 104 105 105 104 104 105 106 108 110 113 115 116 116 113 112 113 115 118 114 113 117 114 114 114 113 111 109 107 103 104 103 104 100 95
101 100 96 97 102 104 104 106 105 104 101 102 103 105 105 108 107 104 105 108 110 110 108 109 111 115 117 113 116 117 112 111 113 112 110 107 104 101 99 99 100 97 92 86
107 104 105 104 105 110 105 100 105 106 104 106 107 106 106 102 104 110 112 110 108 110 109 113 118 116 116 114 110 110 110 110 111 106 103 101 99 98 96 93 91 88 83 79
Wind_Direction
199 204 195 201 193 191 195 195 200 200 200 207 213 222 225 235 236 242 258 268 279 281 285 293 298 304 308 308 313 315 322 323 329 328 329 329 315 300 293 293 298 299 303 295
204 205 206 207 206 200 201 206 208 207 209 214 220 226 235 240 240 247 257 268 277 281 295 304 305 304 307 308 306 305 302 302 303 298 298 299 301 299 297 294 293 298 305 307
204 207 210 213 214 208 208 211 217 214 218 218 224 229 236 241 246 257 263 269 275 285 291 295 297 298 300 299 298 297 298 298 301 299 302 300 299 300 303 297 298 301 304 310
208 207 210 214 220 219 213 216 220 220 222 221 227 232 237 242 249 258 264 271 277 282 287 290 292 297 298 300 299 295 296 299 301 299 302 302 295 302 306 304 303 301 296 298
203 211 211 216 221 224 221 219 224 225 224 225 230 235 240 245 250 256 262 269 273 278 280 283 286 290 293 295 296 296 295 298 303 305 305 303 299 302 305 306 302 301 299 299
209 209 214 220 223 225 228 228 230 226 227 228 231 237 241 245 251 257 264 270 275 279 279 281 283 285 289 294 296 296 292 293 296 298 301 304 299 304 309 308 304 302 304 304
211 210 214 218 222 225 231 233 229 230 230 234 234 238 245 249 254 259 264 270 275 275 277 279 283 286 289 293 294 295 298 296 294 297 299 300 294 303 305 307 304 304 304 304
211 212 216 221 225 230 235 235 235 235 235 237 240 243 246 252 256 260 264 269 273 277 277 281 283 285 288 292 296 294 294 293 293 295 298 299 297 304 304 304 302 304 304 304
213 214 217 221 223 226 230 236 239 240 241 242 244 246 248 252 257 262 267 271 273 276 279 285 287 290 293 294 292 289 293 294 295 297 298 297 297 299 301 303 302 302 301 303
214 216 218 220 224 226 229 232 238 242 243 245 248 250 253 257 261 265 268 270 273 276 282 284 289 291 289 289 288 288 292 295 297 296 297 296 300 303 304 302 300 299 302 308
218 219 220 221 225 226 229 232 236 239 243 247 250 253 255 258 261 264 269 273 276 281 284 287 292 289 288 287 292 292 291 292 293 297 300 300 303 303 304 306 306 308 308 309
219 221 222 224 226 227 230 232 237 241 244 247 251 253 258 261 265 268 271 273 278 280 285 289 291 291 286 289 289 290 290 293 298 301 300 303 305 305 306 307 308 307 308 309
222 224 226 227 230 230 232 233 237 240 244 248 252 256 259 264 267 269 273 276 279 288 288 289 288 287 287 288 287 289 290 293 297 301 300 303 304 305 305 306 308 310 310 311
225 227 229 231 233 234 235 237 241 244 247 250 254 257 261 265 268 270 274 278 285 283 283 285 289 286 285 289 290 290 291 294 298 299 299 302 303 306 309 310 309 308 309 311
225 230 233 234 237 239 240 242 245 248 250 253 256 259 263 266 268 273 277 279 277 277 282 287 285 286 289 293 292 290 290 293 296 298 300 302 305 306 307 309 310 310 311 312
230 231 234 239 242 244 246 247 250 251 253 255 258 260 265 268 271 272 271 274 279 281 285 286 284 287 289 292 292 291 294 298 301 303 304 305 307 308 309 308 311 311 311 311
230 234 238 242 243 247 252 253 253 256 258 257 258 262 267 268 268 270 275 277 281 285 285 283 283 286 292 296 296 295 297 299 300 302 304 306 309 310 310 309 309 310 309 308
232 234 237 239 243 245 247 250 251 252 253 252 256 260 265 270 276 275 276 277 278 279 283 285 286 290 293 295 293 294 296 299 303 305 307 307 308 308 309 309 309 309 308 309
234 236 237 239 240 243 247 249 250 252 254 257 258 259 261 266 267 272 275 278 282 284 285 287 288 290 291 291 292 295 298 302 303 304 305 305 305 307 308 308 307 308 310 311
235 238 240 241 243 244 246 248 249 251 254 256 258 260 263 264 266 270 274 277 279 282 286 287 290 292 291 291 293 296 298 301 304 304 303 304 306 306 307 307 308 309 309 309
237 240 243 246 247 248 247 248 250 253 256 258 260 262 264 267 270 272 274 277 279 282 284 285 286 288 288 291 293 296 300 299 298 299 301 304 304 304 307 308 309 310 311 311
242 243 245 246 247 248 249 251 254 258 260 261 262 264 267 269 271 274 275 277 279 282 284 286 287 286 287 290 293 296 297 297 297 301 302 305 306 308 310 310 310 311 311 310
243 244 245 248 250 252 253 255 257 259 261 263 265 267 270 272 274 276 278 279 281 282 284 286 288 289 291 292 293 295 294 296 301 303 303 305 306 308 310 310 310 310 309 308
243 247 250 252 254 256 256 257 259 262 262 263 265 267 269 270 272 275 277 280 282 283 285 287 290 290 291 292 293 291 298 301 301 303 303 304 306 308 308 308 308 308 308 309
242 245 250 253 256 259 259 261 262 264 265 267 268 270 273 275 277 279 281 281 281 283 285 288 291 292 292 292 294 300 300 299 300 301 303 304 306 307 307 306 307 307 308 312
246 248 248 251 252 256 258 262 264 264 269 271 271 271 273 275 277 279 283 284 284 285 290 291 293 293 292 295 296 297 297 298 299 301 302 304 305 305 305 306 306 307 311 310
249 251 251 253 253 255 258 261 262 262 266 268 270 273 275 278 279 281 283 284 287 289 293 294 291 294 295 293 295 295 296 298 300 300 302 303 303 304 305 306 308 310 308 310